Temperature
16 17 17 17 20 21 21 21 21 21 21 19 19 20 21 21 21 19 15 15 15 15 15 15 15 15 15 15 15 15 15 15 15 15 15 15 15 15 15 15 14 14 14 14 14 14 14 14 14
16 17 17 19 21 21 21 21 21 21 19 17 18 19 20 18 16 15 14 15 15 15 15 15 15 15 15 15 14 14 14 15 15 15 15 15 15 15 14 14 14 14 14 14 14 14 14 14 14
16 16 17 20 21 21 21 21 20 19 17 18 18 17 18 16 14 14 14 15 14 14 14 14 15 15 14 14 14 14 14 14 14 14 15 15 15 15 14 14 14 14 14 14 14 14 14 14 14
16 16 18 20 20 20 20 20 19 18 17 17 18 18 15 14 13 14 14 14 14 14 14 14 15 15 14 14 14 14 14 14 14 14 14 14 14 14 14 14 14 14 14 14 14 14 14 14 14
15 17 19 19 19 19 19 18 18 19 19 17 17 18 15 13 14 14 14 14 14 14 14 14 14 14 14 14 14 14 14 14 14 14 14 14 14 14 14 14 14 14 14 14 14 14 14 14 14
16 18 19 19 19 18 18 17 18 18 18 17 17 17 15 13 14 14 14 14 14 14 14 14 14 14 14 14 14 14 14 14 14 14 14 14 14 14 14 14 14 14 14 14 14 14 14 14 14
16 18 18 19 19 18 18 16 17 18 18 16 16 17 14 13 13 14 14 13 13 13 13 13 14 14 14 14 14 14 14 14 14 14 14 14 14 14 14 14 14 14 14 14 14 14 14 14 14
15 17 17 18 18 18 17 16 15 16 16 14 14 16 15 12 13 13 13 13 13 13 13 13 13 13 13 14 14 14 14 14 14 14 14 14 14 14 14 14 14 14 14 14 13 13 13 14 13
14 16 17 17 17 17 16 16 14 13 14 13 12 13 12 12 12 13 13 13 13 13 13 13 13 13 13 13 13 13 13 13 13 14 14 13 13 13 13 13 13 13 13 13 13 13 13 13 13
14 16 16 16 16 16 15 15 14 14 14 13 12 11 12 12 12 12 12 13 13 13 13 13 13 13 13 13 13 13 13 13 13 13 13 13 13 13 13 13 13 13 13 13 13 13 13 13 12
14 15 15 14 13 14 14 13 13 15 15 14 13 11 11 11 12 12 12 12 12 12 12 13 12 13 12 12 12 13 13 13 13 12 13 13 13 13 13 13 13 13 13 12 13 12 12 12 12
13 13 13 13 11 12 13 13 12 13 13 12 11 11 11 11 11 11 12 12 12 12 12 12 12 12 12 12 12 12 12 12 12 12 12 12 12 12 12 12 12 12 12 12 12 12 12 12 12
13 12 11 10 10 11 11 12 12 11 10 10 10 11 11 11 11 10 11 11 11 11 12 12 12 12 12 12 12 12 12 12 12 12 12 12 12 12 12 12 12 12 12 12 12 12 12 12 12
12 11 11 11 11 11 11 11 11 10 9 10 10 10 10 10 10 10 10 10 11 11 11 11 11 11 11 11 11 12 12 12 12 12 12 12 12 12 12 12 12 12 12 11 11 11 11 11 11
10 11 11 11 11 11 11 12 12 10 9 9 9 9 9 9 9 10 10 10 10 10 10 11 11 11 11 11 11 11 11 11 11 11 11 11 11 11 11 11 11 11 11 11 11 11 11 11 11
11 12 12 11 11 10 12 13 12 9 9 9 9 9 8 9 9 9 9 9 10 10 10 10 10 10 10 10 10 10 10 11 11 11 11 11 11 11 11 11 11 11 11 11 11 11 11 11 11
11 12 12 12 11 11 11 13 11 9 9 9 9 8 8 8 8 8 9 9 9 9 9 9 9 10 10 10 10 10 10 10 10 10 10 10 10 10 10 10 10 10 10 10 10 10 10 10 10
12 12 12 12 11 10 11 12 11 9 9 9 9 8 8 8 8 8 8 9 9 9 9 9 9 9 9 9 9 9 9 9 9 10 10 10 10 10 10 10 10 10 10 10 10 10 10 10 10
11 11 11 11 10 10 11 11 11 10 9 9 9 8 8 7 7 8 8 8 8 8 9 8 8 8 8 9 9 9 9 9 9 9 9 9 9 9 9 9 9 9 9 9 9 9 9 9 9
10 10 11 9 8 9 10 10 11 10 9 9 9 8 8 7 7 7 7 8 8 8 8 8 8 8 8 8 8 8 8 8 8 9 9 9 9 9 9 9 9 9 9 9 9 9 9 9 9
9 10 10 9 8 8 9 11 11 10 8 8 7 7 7 7 7 7 7 7 7 8 8 8 8 8 8 7 7 7 7 8 8 8 8 8 8 8 8 8 8 8 8 8 8 8 8 8 8
9 8 8 8 9 9 9 10 11 10 9 8 7 7 7 6 6 6 6 6 7 7 7 7 7 7 7 7 7 7 7 7 7 7 7 8 8 8 8 8 8 8 8 8 8 8 8 8 8
8 7 7 8 8 8 8 8 11 9 9 9 8 7 6 6 5 5 6 6 6 6 6 7 7 7 7 7 6 6 6 6 6 7 7 7 7 7 7 7 7 7 7 7 7 7 7 7 7
6 7 6 7 7 7 8 8 11 10 9 9 8 7 6 5 5 5 5 5 6 6 6 6 6 6 6 6 6 6 6 6 6 6 6 6 6 6 6 7 7 7 7 7 7 7 7 7 7
6 7 7 7 7 9 7 8 10 9 8 7 7 6 5 4 4 4 5 5 5 5 5 5 5 5 5 5 5 5 5 5 5 6 6 6 6 6 6 6 6 6 6 6 6 6 6 6 6
6 7 8 8 9 9 6 8 10 7 5 5 4 4 4 4 4 4 4 4 5 5 5 5 5 5 5 5 5 5 5 5 5 5 5 5 5 5 5 5 6 6 6 6 6 6 6 6 6
6 6 6 6 5 7 8 8 8 6 6 5 4 4 3 3 3 3 3 4 4 4 4 4 4 4 4 4 4 4 4 4 4 4 4 4 4 4 5 5 5 5 5 5 5 5 5 5 5
6 6 5 6 7 8 9 8 9 7 6 6 4 4 3 3 3 3 3 3 3 4 4 4 4 4 4 4 4 4 4 4 4 4 4 4 4 4 4 4 4 4 4 4 4 4 4 4 4
4 4 5 6 6 7 8 9 8 7 6 5 4 3 3 2 2 2 2 3 3 3 3 3 3 3 3 3 3 3 3 3 3 3 3 3 3 3 3 3 3 4 4 4 4 3 3 3 4
4 5 5 6 5 5 7 8 6 5 5 4 3 2 2 2 2 1 2 2 2 2 2 2 3 3 3 3 3 3 2 2 2 2 2 2 3 3 3 3 3 3 3 3 3 3 3 3 3
Wind_Speed
6 4 2 3 4 4 7 4 3 4 3 1 1 2 2 2 1 4 4 5 6 8 8 9 9 9 9 9 10 10 10 10 10 10 10 10 10 10 10 10 10 10 10 10 10 11 11 11 11
4 2 3 3 6 8 7 6 6 3 2 3 2 2 3 3 4 5 4 4 6 8 8 8 9 9 9 9 9 9 9 10 9 10 9 9 9 9 9 9 9 9 9 9 10 10 10 10 10
2 2 3 4 6 9 7 4 4 3 3 2 3 2 1 2 3 3 4 5 7 8 7 8 9 9 8 8 8 9 9 9 9 9 8 8 8 8 8 8 8 9 9 9 9 9 9 8 8
2 2 3 5 9 7 4 3 3 6 4 2 3 4 3 4 2 3 5 6 7 7 7 8 8 8 8 8 8 8 8 8 8 8 8 8 8 8 8 8 8 8 8 8 8 8 8 8 7
1 3 6 8 9 6 3 2 4 5 4 3 3 4 4 3 4 4 6 7 7 7 7 8 8 8 8 8 8 8 8 8 8 7 7 7 7 7 7 7 7 7 7 7 7 7 7 7 7
3 4 8 11 10 6 4 3 4 4 3 3 3 4 4 4 4 4 5 6 6 7 7 8 7 7 7 7 7 7 7 7 8 7 7 7 7 7 7 6 6 7 7 6 6 6 6 6 6
4 5 9 10 10 8 5 4 5 5 4 2 1 4 4 4 3 4 6 6 6 6 6 6 6 6 7 7 7 7 7 7 7 7 6 6 6 6 6 6 6 6 6 6 5 5 5 5 5
2 4 8 10 11 9 4 4 2 3 3 1 1 3 3 3 3 5 6 6 6 5 5 5 5 5 5 6 6 6 7 7 7 7 6 6 6 6 6 6 5 5 5 5 5 5 5 5 5
3 6 10 10 9 7 5 5 2 1 3 2 1 2 2 5 6 6 6 5 5 4 4 4 4 4 4 4 5 5 6 6 6 6 6 5 4 4 4 4 4 4 4 4 5 4 4 4 4
4 8 10 5 4 4 4 4 4 5 4 3 3 3 5 6 6 6 5 5 4 4 3 3 3 3 3 3 4 4 4 4 3 3 4 3 3 3 3 5 4 4 4 4 4 4 5 4 4
4 6 5 3 2 2 4 3 2 6 5 5 5 5 5 6 6 5 4 4 4 3 2 2 3 3 3 2 3 2 2 3 3 2 2 2 2 2 2 3 3 3 3 3 4 5 4 3 3
5 3 3 2 1 2 3 4 3 5 4 1 3 6 6 6 5 5 4 3 3 3 2 2 2 2 2 2 2 2 2 2 2 2 2 2 2 2 2 2 2 2 2 2 2 2 3 3 4
6 4 2 2 2 1 3 4 4 4 3 2 4 6 5 5 4 3 3 3 2 2 1 1 1 1 2 2 2 2 2 2 2 2 2 2 1 2 2 2 2 2 2 2 2 2 3 4 4
5 5 3 2 3 3 4 4 5 5 4 4 5 6 5 4 3 2 2 2 2 2 1 0 0 0 1 2 2 2 2 2 2 2 2 2 2 2 2 2 1 2 2 2 3 3 3 3 3
5 5 4 3 4 3 4 6 8 6 6 6 5 5 4 3 3 2 2 2 2 1 1 0 1 1 1 2 2 2 2 2 2 2 3 2 2 2 2 2 2 2 2 3 3 3 3 3 3
5 6 6 4 5 4 7 10 6 6 8 7 6 5 4 3 2 2 1 1 1 1 1 0 0 1 1 2 2 1 2 2 2 2 2 3 3 3 2 2 2 2 2 2 3 3 3 3 3
6 7 9 5 5 4 7 8 5 6 8 8 7 6 5 4 2 1 1 1 1 1 1 0 0 0 1 1 1 1 1 2 2 2 2 2 3 3 3 2 2 3 2 2 3 3 3 3 4
8 8 8 8 4 6 9 10 6 7 8 9 7 7 6 5 4 2 1 1 1 1 0 0 1 1 1 1 1 0 1 0 1 1 1 2 2 3 3 2 3 3 3 3 3 3 3 3 3
6 7 8 6 2 6 11 12 9 8 9 10 9 8 8 6 4 2 2 1 1 1 1 1 1 1 1 1 1 1 1 1 1 1 1 2 2 3 3 2 2 3 3 3 4 4 4 3 3
6 7 6 4 2 5 8 12 10 9 11 11 10 10 9 7 5 4 3 2 1 1 1 1 0 0 1 1 1 2 1 1 1 1 1 2 2 2 3 3 3 3 3 3 4 4 3 3 2
6 8 7 5 3 4 6 9 10 8 9 9 9 9 9 8 7 5 4 3 2 1 0 0 0 1 1 1 1 1 1 1 1 1 1 2 2 2 3 3 3 3 3 3 4 5 5 4 4
7 4 5 5 5 4 4 6 7 7 8 9 10 9 9 8 7 6 4 3 2 1 1 0 0 0 0 1 1 1 2 2 2 2 2 2 2 2 2 3 4 4 4 4 4 5 5 5 5
3 2 3 4 5 4 6 6 6 5 9 10 9 9 8 7 6 6 5 4 3 1 0 0 0 0 0 1 1 2 2 2 1 1 2 2 2 2 2 3 3 4 4 4 5 5 6 5 6
5 4 2 2 3 6 7 8 7 5 7 6 6 7 6 5 5 4 3 2 2 1 0 0 0 1 1 1 1 2 2 2 1 2 2 2 2 2 2 3 3 4 4 5 5 5 6 6 6
5 4 3 4 5 6 4 7 7 2 3 4 5 5 4 4 4 3 2 2 2 1 1 1 0 1 1 2 2 2 2 2 3 3 2 2 2 2 3 3 4 4 4 5 5 5 5 6 6
7 7 5 5 5 3 4 8 4 0 1 2 2 3 3 3 3 3 2 2 2 1 1 1 1 1 1 1 2 2 2 2 3 3 3 3 3 3 4 4 4 4 5 4 4 4 5 5 5
6 6 2 1 1 4 6 5 5 3 2 2 2 2 2 2 2 2 2 1 1 1 2 2 2 2 1 1 2 2 2 2 3 3 3 3 3 3 4 4 4 4 4 4 5 4 5 5 5
2 5 4 4 4 6 5 6 5 4 4 2 2 2 1 1 1 1 1 1 1 1 1 1 2 2 2 2 2 2 3 3 3 3 3 3 4 4 4 5 4 4 4 4 4 5 5 5 5
5 5 4 4 3 5 5 4 1 3 3 3 2 2 1 2 2 2 1 1 1 1 1 1 1 2 2 2 2 3 3 3 3 3 3 3 4 4 4 4 4 4 4 4 4 5 5 6 6
5 6 7 5 5 4 5 5 1 1 2 2 1 2 3 2 2 1 1 1 1 1 1 1 2 2 2 2 2 3 3 3 3 3 3 4 4 4 4 4 4 4 4 4 5 5 5 6 6
Wind_Direction
322 313 263 228 209 212 221 202 191 167 167 125 105 159 153 102 42 94 88 118 124 137 138 139 132 131 129 126 127 126 123 118 116 116 119 119 118 115 113 111 109 106 102 101 101 99 97 97 95
314 289 227 220 222 213 211 204 194 168 123 128 129 141 131 99 59 87 105 117 130 132 134 134 128 128 127 126 126 130 128 124 120 119 119 118 119 120 118 116 112 109 106 105 105 103 101 99 98
282 273 223 206 220 221 205 181 184 147 129 154 138 95 79 85 87 93 90 127 129 126 126 119 121 122 120 120 123 125 128 128 124 123 121 121 118 119 122 121 116 113 110 108 108 107 106 104 102
231 196 209 220 215 223 221 162 158 155 147 125 148 122 104 52 44 76 112 131 131 126 124 121 121 119 117 114 114 120 123 126 128 128 128 125 120 115 115 119 121 122 117 112 111 111 109 108 110
223 207 203 215 220 213 215 195 174 174 167 144 155 133 118 71 51 92 121 130 131 126 117 120 117 117 118 116 113 114 118 122 122 124 125 126 127 123 119 117 118 123 123 120 118 114 112 110 113
187 209 215 217 213 205 206 203 190 186 164 151 155 147 124 77 78 103 122 128 127 122 113 110 108 111 113 115 114 115 118 123 120 118 118 120 124 128 128 127 127 124 124 123 122 122 120 116 115
205 205 222 220 214 210 207 197 202 194 182 169 181 157 141 99 90 117 127 126 119 115 111 110 116 115 112 108 105 109 111 113 115 113 112 115 117 123 125 127 129 130 128 125 123 125 121 120 123
218 200 218 221 218 217 196 186 203 219 191 125 205 173 163 149 131 130 124 119 116 111 110 112 115 119 124 120 107 107 110 108 110 114 111 112 117 117 126 127 125 132 136 135 135 138 135 124 121
205 213 220 217 217 213 185 185 166 142 146 138 100 47 79 128 137 129 124 120 119 112 113 113 114 113 120 123 120 118 114 110 116 120 117 128 138 136 134 121 125 134 139 145 148 149 148 150 143
199 218 224 221 220 197 174 189 174 172 172 172 141 89 107 127 134 134 137 144 144 142 135 126 121 119 121 119 129 135 131 127 127 133 139 140 145 143 140 126 125 139 148 154 157 164 176 196 184
194 219 208 197 200 190 181 187 197 202 208 209 190 159 145 144 145 148 154 154 158 150 129 133 132 136 134 127 131 133 140 142 144 139 147 155 150 151 159 161 156 162 175 179 173 189 201 207 205
180 201 203 199 190 200 197 186 200 229 231 234 179 162 160 161 162 166 169 163 157 150 137 115 103 139 151 149 150 150 151 157 157 163 165 173 167 168 172 181 186 186 190 196 203 216 215 218 219
195 189 185 177 149 166 176 196 206 228 232 182 162 162 170 173 173 177 177 166 159 153 143 144 132 126 167 165 168 168 169 175 177 178 183 191 186 191 186 198 196 204 210 209 231 238 234 228 224
174 168 174 204 215 225 204 216 217 226 201 184 172 172 176 173 168 166 176 181 179 179 162 219 204 192 187 182 183 181 184 187 188 184 190 198 205 199 204 211 212 214 229 235 241 253 248 242 233
163 172 194 220 220 216 210 231 227 206 192 193 189 183 177 176 174 182 197 208 204 198 168 212 253 287 235 207 199 196 194 193 192 203 204 206 217 217 211 216 222 230 238 242 246 252 251 246 242
176 198 213 203 212 213 222 240 209 185 190 198 197 193 190 188 195 202 198 207 214 203 187 203 278 296 264 241 210 203 203 195 198 209 212 222 225 229 221 218 225 232 234 237 244 251 255 248 250
193 212 217 205 203 207 219 244 203 188 199 206 206 204 202 204 218 221 205 164 168 198 187 159 347 340 297 311 254 186 189 189 199 208 215 228 231 235 232 223 223 222 225 232 243 251 257 259 260
200 211 215 214 196 217 225 239 227 210 213 218 216 214 213 215 222 218 204 149 128 109 97 89 31 356 356 29 23 108 105 164 176 203 238 230 227 234 234 232 228 221 225 229 234 245 255 257 266
200 211 223 226 229 232 238 247 245 228 223 225 222 219 219 221 217 199 194 168 139 100 77 54 37 12 346 307 304 268 266 264 250 243 255 241 237 232 227 230 235 232 229 230 234 240 253 257 263
198 213 226 230 236 245 255 258 251 233 228 228 226 222 219 216 212 208 207 196 181 151 108 74 17 331 311 306 303 283 260 261 270 288 263 246 242 241 236 230 236 237 238 235 233 235 238 245 237
216 223 224 227 249 248 269 260 235 222 222 225 228 225 220 216 215 214 210 206 185 169 198 220 268 294 312 335 333 309 242 234 269 290 276 276 261 241 248 244 237 236 231 234 236 232 232 235 233
224 224 218 214 226 242 238 262 234 213 218 220 219 219 221 216 215 212 210 210 211 213 204 232 210 206 309 304 279 273 255 255 269 273 285 300 297 271 250 249 243 241 234 234 237 235 237 235 233
200 172 204 219 227 251 230 247 250 211 229 223 216 215 216 216 215 213 211 208 213 201 176 136 67 104 217 257 260 264 270 272 273 280 290 310 311 307 280 257 251 249 245 241 241 241 241 235 233
149 139 135 197 219 243 222 227 255 216 223 221 213 213 211 212 212 212 212 204 201 181 142 50 54 7 340 295 277 278 275 274 262 274 286 300 309 303 302 287 266 257 253 246 242 241 240 238 238
187 180 199 209 216 235 183 227 250 232 229 238 235 226 218 214 210 208 209 209 209 202 198 224 218 302 328 315 293 287 272 264 258 260 265 286 298 294 293 299 284 271 260 255 248 241 240 239 239
195 203 216 228 232 237 204 233 246 39 276 255 245 232 217 206 203 208 220 226 221 220 219 232 246 276 290 299 308 307 289 279 278 272 270 272 280 291 297 289 287 282 271 260 250 244 241 239 239
178 204 225 179 279 255 235 249 267 235 224 208 193 182 204 216 220 225 228 237 240 229 238 243 249 268 288 298 299 300 308 296 288 285 278 276 283 293 296 291 286 281 277 266 255 247 246 243 239
225 160 168 196 216 241 244 244 239 212 209 183 186 205 239 255 272 266 255 264 272 261 254 257 260 271 293 308 309 301 292 286 286 291 294 294 293 291 293 290 288 287 279 272 260 252 253 252 250
172 180 196 199 243 244 251 244 214 215 200 201 215 246 279 281 271 264 284 302 308 294 268 274 284 291 306 315 311 305 298 295 295 293 295 299 302 301 294 292 289 288 286 277 266 260 256 252 253
230 212 195 208 217 232 257 265 81 217 190 206 248 292 313 306 290 272 277 285 289 292 298 300 296 296 302 308 306 308 307 303 303 304 303 302 299 301 302 301 295 290 289 284 273 267 261 255 254
Height
1515 1516 1517 1519 1518 1514 1513 1511 1512 1514 1516 1519 1520 1520 1518 1520 1522 1529 1531 1529 1531 1532 1534 1535 1537 1538 1539 1540 1541 1542 1542 1543 1543 1544 1544 1545 1545 1545 1545 1545 1546 1546 1546 1546 1546 1546 1546 1545 1545
1515 1516 1519 1519 1513 1513 1512 1510 1513 1515 1518 1521 1521 1521 1521 1524 1527 1528 1528 1529 1531 1533 1535 1536 1537 1538 1540 1540 1541 1542 1543 1544 1544 1545 1545 1545 1546 1546 1546 1546 1547 1547 1547 1547 1547 1547 1547 1547 1546
1515 1516 1519 1514 1511 1508 1509 1511 1513 1518 1520 1521 1521 1523 1524 1527 1528 1528 1529 1530 1532 1534 1535 1536 1537 1539 1540 1541 1542 1543 1544 1544 1545 1545 1546 1546 1546 1546 1547 1547 1547 1548 1548 1548 1548 1548 1548 1548 1547
1515 1518 1518 1513 1511 1510 1510 1513 1516 1518 1520 1521 1521 1523 1526 1528 1528 1528 1529 1530 1532 1534 1536 1537 1538 1539 1540 1541 1542 1543 1544 1544 1545 1546 1546 1546 1546 1547 1547 1547 1548 1548 1548 1548 1548 1549 1549 1548 1548
1515 1516 1513 1512 1510 1511 1514 1516 1517 1516 1518 1521 1521 1522 1526 1528 1527 1528 1529 1531 1533 1534 1536 1537 1538 1539 1540 1541 1542 1543 1544 1544 1545 1545 1546 1546 1546 1547 1547 1548 1548 1548 1548 1549 1549 1549 1549 1549 1549
1516 1513 1510 1509 1509 1512 1515 1517 1518 1518 1519 1521 1522 1523 1527 1528 1527 1529 1530 1532 1533 1534 1536 1537 1538 1539 1540 1541 1542 1543 1544 1544 1545 1545 1546 1546 1546 1547 1547 1547 1548 1548 1548 1548 1549 1549 1549 1549 1549
1514 1511 1508 1506 1508 1511 1515 1518 1518 1518 1519 1522 1523 1523 1526 1527 1528 1529 1530 1532 1533 1534 1535 1537 1538 1539 1540 1541 1542 1543 1543 1544 1544 1545 1545 1545 1546 1546 1547 1547 1547 1548 1548 1548 1548 1549 1549 1549 1549
1512 1512 1509 1508 1508 1510 1515 1518 1519 1519 1520 1523 1524 1524 1526 1527 1527 1529 1530 1532 1533 1534 1535 1536 1538 1539 1540 1541 1542 1542 1543 1543 1544 1544 1545 1545 1545 1546 1546 1546 1546 1547 1547 1547 1548 1548 1548 1549 1549
1513 1513 1508 1507 1508 1510 1515 1517 1519 1520 1522 1523 1523 1525 1526 1526 1527 1529 1530 1531 1532 1534 1535 1536 1537 1538 1539 1540 1541 1542 1542 1543 1543 1544 1544 1544 1545 1545 1545 1545 1545 1546 1546 1547 1547 1548 1548 1548 1548
1512 1509 1507 1509 1511 1512 1515 1516 1519 1520 1521 1523 1524 1524 1525 1525 1526 1528 1529 1530 1531 1532 1533 1535 1536 1537 1538 1539 1540 1540 1541 1542 1542 1542 1543 1543 1544 1544 1544 1544 1544 1545 1545 1546 1546 1546 1547 1547 1547
1510 1508 1510 1513 1514 1515 1516 1517 1519 1518 1519 1521 1522 1523 1524 1525 1526 1527 1528 1529 1530 1531 1532 1533 1535 1536 1537 1537 1538 1539 1539 1540 1541 1541 1541 1542 1542 1542 1543 1543 1543 1543 1544 1544 1544 1545 1545 1546 1546
1510 1512 1512 1514 1515 1516 1516 1517 1519 1518 1519 1521 1522 1522 1523 1524 1525 1526 1527 1528 1529 1530 1531 1532 1533 1534 1535 1536 1537 1537 1538 1538 1539 1539 1540 1540 1540 1541 1541 1541 1542 1542 1542 1542 1543 1543 1544 1544 1544
1509 1511 1513 1515 1515 1516 1517 1517 1518 1519 1519 1520 1521 1521 1522 1523 1524 1525 1526 1527 1528 1529 1529 1530 1531 1532 1533 1534 1535 1535 1536 1536 1537 1537 1538 1538 1538 1539 1539 1539 1539 1540 1540 1541 1541 1541 1541 1542 1542
1509 1512 1513 1514 1515 1516 1516 1516 1517 1517 1518 1519 1519 1520 1521 1522 1523 1524 1525 1525 1526 1526 1527 1528 1529 1530 1530 1531 1532 1533 1533 1534 1535 1535 1535 1536 1536 1537 1537 1538 1537 1538 1538 1538 1539 1539 1539 1539 1540
1511 1512 1512 1513 1514 1515 1515 1513 1514 1515 1517 1518 1518 1519 1520 1521 1521 1522 1523 1524 1524 1525 1525 1526 1527 1528 1528 1529 1530 1530 1531 1532 1532 1533 1533 1534 1534 1534 1535 1535 1535 1536 1536 1536 1536 1536 1537 1537 1537
1509 1509 1508 1510 1513 1513 1515 1506 1511 1513 1515 1516 1517 1517 1518 1519 1519 1520 1521 1522 1523 1523 1524 1524 1525 1525 1526 1527 1527 1528 1528 1529 1529 1530 1530 1531 1532 1532 1532 1532 1532 1533 1533 1533 1533 1533 1534 1534 1534
1506 1503 1503 1507 1511 1511 1511 1505 1510 1512 1513 1514 1515 1516 1516 1517 1518 1518 1519 1520 1521 1521 1522 1522 1522 1522 1523 1524 1525 1525 1526 1526 1526 1527 1528 1528 1529 1529 1529 1529 1529 1530 1530 1530 1531 1531 1531 1531 1531
1500 1499 1501 1503 1508 1509 1507 1505 1508 1510 1511 1512 1513 1514 1514 1515 1515 1516 1517 1518 1518 1519 1519 1520 1520 1520 1520 1521 1521 1522 1523 1523 1523 1524 1524 1525 1525 1526 1526 1526 1527 1527 1527 1527 1528 1528 1528 1528 1528
1499 1500 1500 1503 1508 1508 1504 1503 1504 1507 1509 1509 1510 1511 1512 1512 1513 1514 1514 1515 1516 1517 1517 1517 1518 1518 1518 1518 1518 1518 1519 1519 1520 1520 1521 1521 1522 1522 1522 1523 1523 1524 1524 1524 1524 1525 1525 1525 1525
1501 1501 1501 1506 1510 1508 1503 1500 1500 1503 1504 1505 1506 1507 1508 1509 1510 1511 1512 1513 1513 1514 1514 1515 1515 1516 1516 1515 1515 1515 1516 1516 1516 1517 1517 1517 1518 1518 1519 1519 1519 1520 1520 1520 1521 1521 1522 1522 1522
1502 1500 1501 1504 1508 1508 1505 1496 1495 1498 1501 1503 1503 1504 1505 1506 1507 1508 1509 1509 1510 1510 1511 1512 1512 1513 1513 1513 1513 1512 1513 1513 1513 1513 1513 1514 1514 1515 1515 1515 1516 1516 1516 1516 1517 1518 1518 1518 1519
1501 1504 1505 1506 1505 1501 1504 1493 1487 1492 1496 1498 1499 1501 1501 1503 1504 1505 1505 1506 1507 1507 1508 1509 1510 1510 1510 1510 1510 1510 1509 1509 1509 1509 1509 1510 1510 1511 1511 1512 1512 1512 1512 1513 1513 1514 1514 1515 1514
1502 1507 1507 1506 1505 1505 1504 1502 1482 1491 1491 1491 1495 1497 1498 1500 1501 1501 1502 1503 1504 1504 1505 1506 1507 1507 1507 1508 1507 1507 1506 1506 1506 1506 1506 1506 1507 1507 1507 1508 1508 1508 1508 1509 1509 1509 1510 1510 1511
1507 1508 1509 1508 1505 1503 1498 1497 1479 1483 1485 1487 1491 1494 1495 1497 1498 1499 1499 1500 1501 1501 1502 1503 1504 1504 1504 1504 1504 1504 1503 1503 1502 1503 1503 1503 1503 1503 1503 1503 1504 1504 1504 1504 1505 1505 1505 1506 1506
1505 1504 1503 1501 1499 1490 1499 1495 1481 1482 1487 1488 1490 1492 1493 1494 1495 1496 1496 1497 1497 1498 1499 1500 1501 1501 1501 1501 1501 1501 1500 1500 1500 1499 1499 1499 1499 1499 1499 1499 1499 1499 1499 1500 1500 1500 1500 1501 1501
1501 1500 1496 1491 1487 1484 1500 1489 1479 1486 1488 1489 1490 1491 1492 1493 1493 1493 1494 1494 1494 1495 1496 1497 1498 1498 1498 1498 1498 1498 1497 1497 1496 1497 1496 1496 1496 1496 1496 1495 1495 1495 1495 1495 1495 1495 1495 1496 1496
1500 1499 1501 1500 1504 1495 1483 1483 1482 1485 1486 1488 1489 1490 1490 1491 1491 1491 1491 1491 1492 1492 1493 1494 1495 1495 1495 1495 1494 1495 1494 1494 1494 1493 1493 1493 1492 1492 1492 1491 1491 1490 1490 1490 1490 1490 1491 1491 1491
1500 1499 1502 1499 1493 1483 1478 1479 1474 1479 1482 1485 1487 1488 1488 1489 1489 1489 1489 1489 1489 1490 1491 1491 1492 1492 1492 1492 1491 1491 1491 1491 1491 1490 1490 1489 1489 1488 1488 1487 1487 1486 1486 1486 1486 1486 1486 1486 1486
1501 1502 1499 1496 1494 1484 1476 1472 1476 1478 1481 1483 1486 1487 1487 1487 1487 1487 1487 1487 1487 1487 1488 1488 1488 1488 1488 1488 1488 1488 1488 1487 1487 1487 1486 1486 1485 1485 1484 1483 1483 1482 1482 1481 1481 1481 1481 1482 1482
1498 1495 1495 1493 1495 1494 1481 1476 1480 1481 1483 1484 1486 1486 1486 1486 1486 1486 1485 1485 1485 1485 1485 1485 1485 1485 1485 1485 1485 1485 1485 1484 1484 1483 1482 1482 1482 1481 1480 1480 1479 1478 1478 1477 1477 1477 1477 1477 1477